Location: Gerlach
(40.6516°N, 119.3568°W)
Time: 23:34:44
(UTC-08:00)

Gurwin Techsat 1B - Visible Passes

Search period start: 03 March 2024 00:00
Search period end: 13 March 2024 01:00
Orbit: 810 x 813 km, 98.9° (Epoch: 03 March)

Date Brightness Start Highest point End Pass type
(mag) Time Alt. Az. Time Alt. Az. Time Alt. Az.
03 Mar 11.0 02:41:27 10° NE 02:43:03 18° NE 02:43:03 18° NE visible
03 Mar 9.9 04:21:18 10° N 04:24:14 26° NNW 04:24:14 26° NNW visible
04 Mar 11.4 02:19:01 10° NE 02:19:45 13° NE 02:19:45 13° NE visible
04 Mar 9.7 03:57:48 10° N 04:00:56 34° NNW 04:00:56 34° NNW visible
05 Mar 9.7 03:34:31 10° NNE 03:37:38 37° N 03:37:38 37° N visible
05 Mar 10.5 05:17:11 10° NW 05:18:49 11° WNW 05:18:49 11° WNW visible
06 Mar 10.1 03:11:24 10° NNE 03:14:19 32° NE 03:14:19 32° NE visible
06 Mar 10.1 04:52:31 10° NNW 04:55:31 18° NW 04:55:31 18° NW visible
07 Mar 10.6 02:48:31 10° NNE 02:51:01 24° NE 02:51:01 24° NE visible
07 Mar 9.7 04:28:39 10° N 04:32:13 27° NW 04:32:13 27° NW visible
08 Mar 11.1 02:25:57 10° NE 02:27:42 17° ENE 02:27:42 17° ENE visible
08 Mar 9.3 04:05:06 10° N 04:08:54 38° NW 04:08:54 38° NW visible
09 Mar 11.5 02:04:07 10° ENE 02:04:24 11° ENE 02:04:24 11° ENE visible
09 Mar 9.2 03:41:45 10° N 03:45:36 48° N 03:45:36 48° N visible
10 Mar 9.5 04:18:35 10° NNE 04:22:17 45° NE 04:22:17 45° NE visible
10 Mar 10.2 06:00:01 10° NNW 06:03:10 16° WNW 06:03:29 16° WNW visible
11 Mar 10.1 03:55:38 10° NNE 03:58:59 33° ENE 03:58:59 33° ENE visible
11 Mar 9.7 05:36:01 10° N 05:40:10 25° WNW 05:40:10 25° WNW visible
12 Mar 10.7 03:32:57 10° NE 03:35:40 22° ENE 03:35:40 22° ENE visible
12 Mar 9.2 05:12:23 10° N 05:16:52 39° WNW 05:16:52 39° WNW visible
